User: anonymous   Login
Location: ROBOsky.com Wild Flower Ridge Observatory
(43.9736°N, 79.9739°W)
Time: 02:42:36
(UTC-04:00)
Language:

Cosmos 1190 Rocket - Orbit

View from above orbital plane
View from above orbital plane
View from above satellite
View from above satellite

Ground track
Ground track

The orbit data is extracted from the following two-line orbital elements,

1 11870U 80056B   17207.90854268 +.00000048 +00000-0 +24872-4 0  9994
2 11870 074.0532 134.7318 0015258 077.2052 283.0806 14.36855888916673
Epoch (UTC): 26 July 2017 21:48:18
Eccentricity: 0.0015258
inclination: 74.0532°
perigee height: 758 km
apogee height: 780 km
right ascension of ascending node: 134.7318°
argument of perigee: 77.2052°
revolutions per day: 14.36855888
mean anomaly at epoch: 283.0806°
orbit number at epoch: 91667

The dashed part of the orbit path shows where the satellite is in the earth's shadow,  

DLR